• Join FlightAware (Why Join?)
  • Login
  • US Flag GB Flag 
06:18 EDT


 

Airport Tracker/Info


-or-


 

Live Flight TrackerFlight Track Log ✈ UAL149 ✈ 05-May-2013 ✈ KCLE - KBOS

Flight Track Log - Related Links

Times and Time Zones

All times are in EDT time to prevent confusion due to time zone crossing. See the UAL149 flight status page for this flight to view local times or setup timezone preferences in your user account.

Time Position Orientation Groundspeed Altitude Reporting Facility
EDT Latitude Longitude Course Direction KTS MPH feet Rate Location/Type
15:42 41.4175 -81.8347 90° East 154 177 1,600  Level Cleveland Center
15:42 41.4489 -81.8186 21° North 198 228 2,800 2,580 Climbing Cleveland Center
15:44 41.6643 -81.5857 37° Northeast  Level FlightAware Approximate
15:45 41.7525 -81.4975 37° Northeast  Level FlightAware Approximate
15:45 41.5875 -81.7242 27° Northeast 263 303 9,100  Level Cleveland Center
15:46 41.8333 -81.4043 90° East  Level FlightAware Approximate
15:46 41.6569 -81.6447 41° Northeast 285 328 11,200  Level Cleveland Center
15:47 41.8500 -81.2613 90° East  Level FlightAware Approximate
15:47 41.6956 -81.5314 65° Northeast 316 364 14,000  Level Cleveland Center
15:48 41.7172 -81.4092 77° East 326 375 16,700 2,520 Climbing Cleveland Center
15:49 41.7431 -81.2761 75° East 347 399 19,100 2,340 Climbing Cleveland Center
15:50 41.7689 -81.1372 76° East 367 422 21,400 2,100 Climbing Cleveland Center
15:51 41.7944 -80.9953 76° East 385 443 23,400 1,800 Climbing Cleveland Center
15:52 41.8219 -80.8478 76° East 401 461 25,000 1,440 Climbing Cleveland Center
15:53 41.8453 -80.7086 77° East 410 472 26,300 1,320 Climbing Cleveland Center
15:54 41.8744 -80.5497 76° East 428 493 27,700 1,260 Climbing Cleveland Center
15:55 41.9014 -80.3906 77° East 428 493 28,900 1,020 Climbing Cleveland Center
15:56 41.9322 -80.2231 76° East 444 511 29,800 540 Climbing Cleveland Center
15:57 41.9589 -80.0556 78° East 457 526 30,000 60 Climbing Cleveland Center
15:58 41.9911 -79.8764 76° East 449 517 30,000  Level Cleveland Center
15:59 42.0214 -79.7111 76° East 449 517 30,100 720 Climbing Cleveland Center
16:00 42.0469 -79.5458 78° East 449 517 31,500 1,320 Climbing Cleveland Center
16:01 42.0767 -79.3775 77° East 449 517 32,800 720 Climbing Cleveland Center
16:02 42.1039 -79.2119 77° East 449 517 33,000 60 Climbing Cleveland Center
16:03 42.1311 -79.0433 78° East 449 517 33,000  Level Cleveland Center
16:04 42.1558 -78.8775 79° East 449 517 33,000  Level Cleveland Center
16:05 42.1844 -78.7142 77° East 449 517 33,000  Level Cleveland Center
16:06 42.2092 -78.5647 77° East 449 517 33,000  Level Cleveland Center
16:07 42.2331 -78.3986 79° East 449 517 33,000  Level Cleveland Center
16:08 42.2592 -78.2350 78° East 449 517 33,000  Level Cleveland Center
16:09 42.2847 -78.0683 78° East 449 517 33,000  Level Cleveland Center
16:10 42.3103 -77.8989 78° East 449 517 33,000  Level Cleveland Center
16:11 42.3375 -77.7319 78° East 449 517 33,000  Level Cleveland Center
16:12 42.3622 -77.5622 79° East 449 517 33,000  Level Cleveland Center
16:13 42.3869 -77.3922 79° East 454 522 33,000  Level Cleveland Center
16:14 42.4333 -77.0628 79° East 444 511 33,000  Level Boston Center
16:15 42.4547 -76.8925 80° East 450 518 33,000  Level Boston Center
16:16 42.4739 -76.7222 81° East 450 518 33,000  Level Boston Center
16:18 42.4939 -76.5178 82° East 455 524 33,000  Level Boston Center
16:19 42.5122 -76.3528 81° East 455 524 33,000  Level Boston Center
16:20 42.5306 -76.1850 82° East 455 524 33,000 -60 Level Boston Center
16:21 42.5461 -76.0194 83° East 449 517 32,900 -60 Descending Boston Center
16:22 42.5617 -75.8569 83° East 441 507 32,900  Level Boston Center
16:23 42.5769 -75.6942 83° East 435 501 33,000  Climbing Boston Center
16:24 42.5936 -75.5369 82° East 430 495 32,900  Descending Boston Center
16:25 42.6083 -75.3769 83° East 424 488 33,000  Climbing Boston Center
16:26 42.6250 -75.2167 82° East 424 488 33,000  Level Boston Center
16:27 42.6392 -75.0536 83° East 424 488 33,000  Level Boston Center
16:28 42.6533 -74.8933 83° East 424 488 33,000  Level Boston Center
16:29 42.6669 -74.7358 83° East 424 488 33,000  Level Boston Center
16:30 42.6806 -74.5725 83° East 424 488 33,000  Level Boston Center
16:31 42.6958 -74.4119 83° East 424 488 33,000  Level Boston Center
16:32 42.7069 -74.2569 84° East 424 488 33,000  Level Boston Center
16:33 42.7217 -74.1019 83° East 419 482 33,000 -60 Level Boston Center
16:34 42.7322 -73.9439 85° East 424 488 32,900  Descending Boston Center
16:35 42.7425 -73.7858 85° East 424 488 33,000  Climbing Boston Center
16:36 42.7317 -73.6469 96° East 419 482 33,000  Level Boston Center
16:37 42.7144 -73.4883 98° East 424 488 33,000  Level Boston Center
16:38 42.6992 -73.3300 97° East 424 488 33,000  Level Boston Center
16:39 42.6814 -73.1744 99° East 424 488 33,000 -420 Level Boston Center
16:40 42.6658 -73.0161 98° East 424 488 32,200 -11,040 Descending Boston Center
16:41 42.6436 -72.8408 100° East 422 486 11,000 -2,940 Descending Boston Center
16:42 42.6253 -72.6942 100° East 420 483 26,400 6,540 Climbing Boston Center
16:43 42.6131 -72.5389 96° East 393 452 24,100 -2,100 Descending Boston Center
16:44 42.5881 -72.4006 104° East 388 447 22,300 -1,980 Descending Boston Center
16:45 42.5711 -72.2597 99° East 388 447 20,200 -1,920 Descending Boston Center
16:46 42.5542 -72.1300 100° East 352 405 18,500 -1,860 Descending Boston Center
16:47 42.5392 -72.0117 100° East 346 398 16,500 -1,980 Descending Boston Center
16:48 42.5281 -71.8681 96° East 346 398 14,600 -1,800 Descending Boston Center
16:49 42.5192 -71.7583 96° East 341 392 13,000 -1,800 Descending Boston Center
16:50 42.5039 -71.6261 99° East 331 381 11,000 -1,440 Descending Boston Center
16:50 42.5000 -71.5667 95° East 323 372 11,000  Level KA90
16:51 42.4833 -71.4667 103° East 316 364 11,000 -480 Level KA90
16:52 42.4833 -71.3333 90° East 283 326 10,000 -900 Descending KA90
16:53 42.4667 -71.2500 105° East 272 313 9,100 -1,200 Descending KA90
16:54 42.4667 -71.1333 90° East 263 303 7,700 -780 Descending KA90
16:56 42.4167 -71.0000 117° Southeast 225 259 7,000 -300 Descending KA90
16:57 42.3500 -70.9667 160° South 233 268 7,000 -540 Level KA90
16:58 42.2833 -70.9500 170° South 233 268 6,000 -1,020 Descending KA90
16:59 42.2333 -70.9667 194° South 230 265 4,900 -1,200 Descending KA90
17:01 42.2231 -71.0550 261° West 154 177 2,900 -1,200 Descending Boston Center
17:01 42.2500 -71.0667 342° North 210 242 2,600 -1,140 Descending KA90
17:02 42.3000 -71.0333 26° Northeast 179 206 1,300 -1,080 Descending KA90
17:03 42.3333 -71.0167 20° North 155 178 400 -900 Descending KA90